[Date Prev][Date Next][Thread Prev][Thread Next][Date Index][Thread Index]

[jamsat-news:1657] jas2info #261



========================   最新情報   ==============================

        Last updated :2Feb 2002  12:10(JST)   #261 

====================================================================
   
1)アマチュア通信衛星情報、FOシリーズの軌道要素、テレメトリ、QSOの
   状況等をまとめてみました.
   
 FO−29の2002年2月1日(金)の17:34(JST)のパスでは
JARLのホームページのとうりアナログ運用でした。 今日までの観測した
テレメトリーと最終の分析結果を報告しておきます。

AS26951C   01Feb2002
17:36-17:44(JST)
AOS   MEL  LOS  Elev
 48    92  135   7.5
Freq. 435.799-788MHz

HI HI AE C7 88 55 00 D4 00 00 09 00 84 2D 57 62 98 95 B0 79 83 86 85 7F 7F 
HI HI AE C7 88 55 00 D4 00 00 09 00 8B 33 53 62 98 96 B0 5D 83 86 85 7F 7F 
HI HI AE C7 88 55 00 D4 00 00 09 00 92 3C 52 62 98 95 B0 67 83 87 85 7F 7F 
HI HI AE C7 88 55 00 D4 00 00 09 00 98 47 4B 63 97 95 AA 62 83 87 85 7F 7F 
HI HI AE C7 88 55 00 D4 00 00 09 00 99 54 46 66 96 93 A5 6F 84 87 85 7F 7F 
HI HI AE C7 88 55 00 D4 00 00 09 00 9A 61 46 65 94 92 A4 7B 83 87 85 80 7F 
HI HI AE C7 88 55 00 D4 00 00 09 00 9B 6F 48 64 94 92 A6 7F 84 87 85 80 7F 
HI HI AE C7 88 55 00 D4 00 00 09 00 97 7C 4D 62 94 91 AB 74 84 87 85 80 7F 
HI HI AE C7 88 55 00 D4 00 00 09 00 90 87 51 61 94 92 B0 6B 84 87 85 80 7F 
HI HI AE C7 88 55 00 D4 00 00 09 00 87 91 56 61 95 93 B0 7A 84 87 85 80 7F 
HI HI AE C7 88 55 00 D4 00 00 09 00 7D 98 5B 61 96 93 B0 86 84 87 85 80 7F 
 
AS26951C   31Jan2002
20:14-20:26(JST)
AOS   MEL  LOS  Elev
357   291  225  24.2
Freq. 435.803-785MHz

HI HI AE C7 88 55 00 D4 10 40 09 61 77 21 6E 62 99 97 B0 99 87 84 86 86 83 
HI HI AE C7 88 55 00 D4 10 40 09 61 86 22 71 63 99 97 B0 72 87 84 86 87 83 
HI HI AE C7 88 55 00 D4 10 40 09 61 91 23 71 63 99 97 B0 4F 87 84 86 87 83 
HI HI AE C7 88 55 00 D4 10 40 09 61 96 24 70 63 99 97 B0 48 87 84 86 87 83 
HI HI AE C7 88 55 00 D4 10 40 09 61 95 25 6B 63 99 97 B0 96 87 84 86 87 83 
HI HI AE C7 88 55 00 D4 10 40 09 61 8E 27 66 63 99 97 B0 51 87 84 86 87 83 
HI HI AE C7 88 55 00 D4 10 40 09 61 81 2A 6D 63 99 97 B0 61 87 84 86 87 83 
HI HI AE C7 88 55 00 D4 10 40 09 61 70 2E 73 63 99 97 B0 5D 87 84 86 88 83 
HI HI AE C7 88 55 00 D4 10 40 09 61 5E 34 74 63 99 97 B0 58 87 84 86 88 83 
HI HI AE C7 88 55 00 D4 10 40 09 61 4D 3B 75 63 99 97 B0 A2 87 84 86 88 83 
HI HI AE C7 88 55 00 D4 10 40 09 61 3E 43 73 63 9A 97 B0 BO 87 84 86 88 83
HI HI AE C7 88 55 00 D4 10 40 09 61 30 55 69 63 99 97 B0 C3 87 84 87 88 83 
HI HI AE C7 88 55 00 D4 10 40 09 61 32 5E 71 63 99 97 B0 42 87 84 87 88 83 
HI HI AE C7 88 55 00 D4 10 40 09 61 3A 67 77 63 9A 97 B0 75 87 84 87 88 83 
HI HI AE C7 88 55 00 D4 10 40 09 61 45 6F 78 63 99 97 B0 75 87 84 87 87 83 
HI HI AE C7 88 55 00 D4 10 40 09 61 54 76 7A 63 99 97 B0 68 87 
 
------------------------ FO-29の軌道要素 ------------------------------        
 
  ■ 軌道要素1:「jamsat−keps:1072」より         
          SB KEPS @ AMSAT  $ORB02031.N
          2Line Orbital Elements 02031.AMSAT

HR AMSAT ORBITAL ELEMENTS FOR AMATEUR SATELLITES IN NASA FORMAT
FROM WA5QGD FORT WORTH,TX January 31, 2002
SEND SUBSCRIBE/UNSUBSCRIBE TO majordomo@amsat.org ONLY
BID: ORB02031.N

 DECODE 2-LINE ELSETS WITH THE FOLLOWING KEY:
 1 AAAAAU 00  0  0 BBBBB.BBBBBBBB  .CCCCCCCC  00000-0  00000-0 0  DDDZ
 2 AAAAA EEE.EEEE FFF.FFFF GGGGGGG HHH.HHHH III.IIII JJ.JJJJJJJJKKKKKZ
 KEY: A-CATALOGNUM B-EPOCHTIME C-DECAY D-ELSETNUM E-INCLINATION F-RAAN
 G-ECCENTRICITY H-ARGPERIGEE I-MNANOM J-MNMOTION K-ORBITNUM Z-CHECKSUM

FO-29
1 24278U 96046B   02031.07317586  .00000131  00000-0  16680-3 0  4748
2 24278  98.5143 230.0356 0351302 130.9096 232.3035 13.52820203269456

 ■ 軌道要素2:「jamsat−keps:1073」より
        SB KEPS @ AMSAT  $ORB02031.O
        Orbital Elements  02031.OSCAR

HR AMSAT ORBITAL ELEMENTS FOR OSCAR SATELLITES
FROM WA5QGD FORT WORTH,TX January 31, 2002
SEND SUBSCRIBE/UNSUBSCRIBE TO majordomo@amsat.org ONLY
BID: ORB02031.O
TO ALL RADIO AMATEURS BT

Satellite: FO-29
Catalog number: 24278
Epoch time:      02031.07317586
Element set:     474
Inclination:       98.5143 deg
RA of node:       230.0356 deg
Eccentricity:    0.0351302
Arg of perigee:   130.9096 deg
Mean anomaly:     232.3035 deg
Mean motion:   13.52820203 rev/day
Decay rate:       1.31e-06 rev/day^2
Epoch rev:           26945
Checksum:              268

-------------------  FO-29(JAS-2)のテレメトリに関する情報  ---------------------- 
 
2)上記2002年2月1日(金)のテレメトリの最終行を分析しておきます.

AS26951C   01Feb2002
17:36-17:44(JST)
AOS   MEL  LOS  Elev
 48    92  135   7.5
Freq. 435.799-788MHz

HI HI AE C7 88 55 00 D4 00 00 09 00 7D 98 5B 61 96 93 B0 86 84 87 85 80 7F 

テレメトリ   内 容        換算数値 単 位
3C	磁気センサーZ軸=	61274.5	[nT]
3D	磁気センサX軸	=	74509.8	[nT]
4A	太陽電池発生電流=	  892.2	[mA]
4B	B充放電電流	=	  -98.8	[mA]
4C	B端子電圧	=	   16.1	[V]
4D	B中間端子電圧	=	    7.1	[V]
5A	バス電圧	=	   17.3	[V]
5B	JTA送信電力	=	  772.9	[mW]
5C 	構体温度1	=	   30.6	[℃]
5D	構体温度2	=	   29.5	[℃]
6A	構体温度3	=	   30.2	[℃]
6B	構体温度4	=	   32.2	[℃]
6C	Bセル温度	=	   32.6	[℃]

*温度が前回に引き続き1度ほど増加しております。

 ========================== FO-29(ふじ3号)のテレメトリ分析、QSO情報等 =====================
   
 3)[jamsat-bb:

 ===============================================================================
 
 4)JARL のホームページに運用予定が記載されていましたのでご紹介します.
       ( http://www.jarl.or.jp/Japanese/3_Fuji/new/uy.htm )
       
        ふじ3号(JAS−2)の運用          

       *** 運用予定について ***

  平成13年      平成14年
 12月4日(火) 〜 3月31日(日)アナログ系運用

  *なお,運用予定は都合により,変更することがありますので,
   あらかじめご了承願います。

 照会先 : lab@jarl.or.jp

 最新の情報はテレホンサービス(03−3942−1000)をお聞きください。  
 以後の運用につきましては平成14年4月上旬にお知らせいたします 
     
-----------------------    FO−20(JAS-1b)道要素   -------------------------
  
  ■ 軌道要素1 :出典はFO-29「ふじ3号」に同じ.
  
FO-20
1 20480U 90013C   02030.97759262  .00000069  00000-0  22089-3 0 03891
2 20480 099.0317 061.5122 0540342 153.1797 209.8359 12.83309046561311
 
  ■ 軌道要素2 :出典はFO−29「ふじ3号」に同じ.
               
Satellite: FO-20
Catalog number: 20480
Epoch time:      02030.97759262
Element set:    0389
Inclination:      099.0317 deg
RA of node:       061.5122 deg
Eccentricity:    0.0540342
Arg of perigee:   153.1797 deg
Mean anomaly:     209.8359 deg
Mean motion:   12.83309046 rev/day
Decay rate:        6.9e-07 rev/day^2
Epoch rev:           56131
Checksum:              299

 -------------------------------------------------------------------------------- 
         ■ ふじ2号/FO−20/JAS-1b ■      
            
          「ふじ2号」 現況                                                                                  
             
   JAS-1b(ふじ2号)のCWテレメトリ信号に,1997年10月12日12時(JST)の
 日本上空通過時,3桁の数字が繰り返されるはずが3個の長音の繰り返しとなっているという
 異常が発見されました。この不具合は次の通過時からは回復していましたが13日15時20分の
 通過時に再び観測されました。現在はA0の送信が続いています。衛星のアナログ系中継モード
 動作は異常が無く,正常時のテレメトリ内容からは衛星の動作に異常は認められません。従って,
 直ちに衛星のミッションに影響することは無いと予想されますので,当面はアナログ系中継
 モードを継続します。衛星は既に打ち上げてから7年8ヶ月を経ておりますので,今後は監視を
 強化する予定です。アマチュア各位のレポートをお待ちします。
 -------------------------------------------------------------------------------- 
  1997年10月14日 00時35分 確認のテレメトリ音 151 KB (A0) 
  1997年10月14日 11時10分 確認のテレメトリ音 216 KB (異常キーイング) 

  以上 JARLのホ−ムページの http://www.jarl.or.jp/Japanese/3_Fuji/new/fuji.htm

===================== FO-20 ふじ2号 のテレメトリ観測結果 ====================

  12月27日(木)17:43(JST)の観測結果ではテレメトリは、以前観測した単一周波数の
正弦波がドップラー効果で周波数がずれていくのみの状態でした。
                                         
   =============   JAS-2 (ふじ3号)と現在までの情報   ===========
  
  A.電話によるふじ3号の運用情報
      社団法人日本アマチュア連盟によるサービス
           TEL .   03− 3942 − 1000
  B.アマチュア無線FAXサービス
      JARLによるふじ3号の軌道情報(オービットカレンダー)
         FAX No.  03− 3233 −0055
  C.WWWブラウザで情報を簡単に見れる人のためにJAS−2
     ふじ3号の衛星としての運用されるまでの名前)の概要、打ち上げ
     までの状況、運用中における状況を説明したホームページを紹介し
     ておきます.

     社団法人日本アマチュア無線連盟(JARL)のホームページ

          http://www.jarl.or.jp/Japanese/3_Fuji/jasmenu.htm
 
     宇宙開発事業団(NASDA)ホームページ 
          http://www.nasda.go.jp/
         打上げ衛星 :地球観測プラットフォーム技術衛星(ADEOS) 
                       アマチュア衛星3号(JAS-2)
          http://spaceboy.nasda.go.jp/note/eisei/j/Eis15h_j.html#Eis15h_01_j
     http://spaceboy.nasda.go.jp/note/eisei/j/Eis15i_j.html        

  D.JAMSATによる軌道情報の活用
        JAMSATのホームページまたはjamsat−kepsの軌道要素より
      衛星の軌道情報を得る.
     JAMSATホームページ
               URL    http://www.jamsat.or.jp
       上記ホームページでは各地で行われるアマチュア通信衛星に関する
      ミューティングのお知らせや世界のアマチュア衛星に関する情報が
      満載されています.

 ========================================================================  
     JAMSATのメンバーのご協力によりJH6MME(高山 秀造)が
    執筆・編集を担当しております.ご指摘の意見、疑問やこのようにしたら
    というアイデアがありましたら小さなことでもかまいませんので気軽に下
    記アドレスまでご連絡ください.jamsat−newsからjas2
    infoへの転載をJH4PHW局坂井さんに担当して頂いております.  
                  E-mail : jh6mme@jamsat.or.jp : jh4phw@jamsat.or.jp
 ===============================   END  ===============================